Weather History for McComb, MS

Change the Weather History Date:

Thursday, September 4, 2014

  Actual Average Record
Temperature  
Mean Temperature 80 °F -  
Max Temperature 93 °F 88 °F 102 °F (2000)
Min Temperature 70 °F 67 °F 53 °F (1974)
Cooling Degree Days 16    
Growing Degree Days 30 (Base 50)    
Moisture  
Dew Point 70 °F    
Average Humidity 76    
Maximum Humidity 93    
Minimum Humidity 52    
Precipitation  
Precipitation 0.33 in - - ()
Sea Level Pressure  
Sea Level Pressure 30.06 in    
Wind  
Wind Speed 2 mph (SSW)    
Max Wind Speed 9 mph    
Max Gust Speed 24 mph    
Visibility 10 miles    
Events Rain , Thunderstorm    
Averages and records for this station are not official NWS values.
T = Trace of Precipitation, MM = Missing Value Source: NWS Daily Summary

Daily Weather History Graph

Daily Weather History Graph

Search for Another Location

Airport:

Trip Planner

Search our weather history database for the weather conditions in past years. The results will help you decide how hot, cold, wet, or windy it might be!

Date:

Astronomy

Sep. 04, 2014 Rise Set
Actual Time 6:39 AM CDT 7:21 PM CDT
Civil Twilight 6:15 AM CDT 7:46 PM CDT
Nautical Twilight 5:46 AM CDT 8:14 PM CDT
Astronomical Twilight 5:16 AM CDT 8:44 PM CDT
Moon 3:48 PM CDT (9/4) 1:42 AM CDT (9/4)
Length of Visible Light 13h 30m
Length of Day
12h 41m
Waxing Gibbous, 74% of the Moon is Illuminated
Sep 4
Waxing Gibbous
Sep 8
Full
Sep 15
Last Quarter
Sep 24
New
Oct 1
First Quarter

Hourly Weather History & Observations

Time (CDT) Temp. Heat Index Dew Point Humidity Pressure Visibility Wind Dir Wind Speed Gust Speed Precip Events Conditions
12:53 AM 72.0 °F - 70.0 °F 93% 30.04 in 10.0 mi Calm Calm - N/A   Clear
1:53 AM 71.1 °F - 69.1 °F 93% 30.03 in 10.0 mi Calm Calm - N/A   Clear
2:53 AM 71.1 °F - 69.1 °F 93% 30.03 in 10.0 mi Calm Calm - N/A   Clear
3:53 AM 71.1 °F - 69.1 °F 93% 30.03 in 10.0 mi Calm Calm - N/A   Clear
4:53 AM 70.0 °F - 68.0 °F 93% 30.04 in 10.0 mi Calm Calm - N/A   Clear
5:53 AM 70.0 °F - 68.0 °F 93% 30.04 in 10.0 mi Calm Calm - N/A   Clear
6:53 AM 70.0 °F - 68.0 °F 93% 30.05 in 10.0 mi Calm Calm - N/A   Clear
7:53 AM 75.9 °F - 70.0 °F 82% 30.06 in 10.0 mi Calm Calm - N/A   Clear
8:53 AM 80.1 °F 83.6 °F 71.1 °F 74% 30.06 in 10.0 mi Calm Calm - N/A   Clear
9:53 AM 82.9 °F 87.5 °F 71.1 °F 67% 30.09 in 10.0 mi SSW 3.5 mph - N/A   Clear
10:53 AM 87.1 °F 91.3 °F 69.1 °F 55% 30.09 in 10.0 mi ENE 5.8 mph - N/A   Clear
11:53 AM 87.1 °F 91.3 °F 69.1 °F 55% 30.09 in 7.0 mi Variable 3.5 mph - N/A   Partly Cloudy
12:53 PM 87.1 °F 92.8 °F 71.1 °F 59% 30.08 in 10.0 mi Variable 3.5 mph - N/A   Unknown
1:53 PM 90.0 °F 95.4 °F 70.0 °F 52% 30.06 in 10.0 mi Variable 4.6 mph - N/A   Mostly Cloudy
2:53 PM 91.0 °F 97.6 °F 71.1 °F 52% 30.03 in 10.0 mi SW 6.9 mph - N/A   Mostly Cloudy
3:53 PM 90.0 °F 96.4 °F 71.1 °F 54% 30.02 in 10.0 mi SSW 4.6 mph - N/A   Mostly Cloudy
4:53 PM 90.0 °F 95.4 °F 70.0 °F 52% 30.01 in 10.0 mi South 3.5 mph - N/A   Overcast
5:53 PM 89.1 °F 94.1 °F 70.0 °F 53% 30.01 in 10.0 mi SW 5.8 mph - N/A   Partly Cloudy
6:53 PM 86.0 °F 92.2 °F 72.0 °F 63% 30.01 in 10.0 mi WSW 3.5 mph - N/A   Clear
7:23 PM 84.9 °F 90.7 °F 72.0 °F 65% 30.03 in 10.0 mi Calm Calm - N/A Thunderstorm Clear
7:30 PM 84.9 °F 90.7 °F 72.0 °F 65% 30.04 in 10.0 mi Calm Calm - N/A Thunderstorm Thunderstorm
7:45 PM 82.9 °F 88.8 °F 73.0 °F 72% 30.07 in 10.0 mi ENE 9.2 mph - N/A Thunderstorm Mostly Cloudy
7:53 PM 79.0 °F - 70.0 °F 74% 30.06 in 10.0 mi East 9.2 mph 24.2 mph N/A Thunderstorm Thunderstorm
8:12 PM 73.9 °F - 70.0 °F 87% 30.11 in 2.5 mi Variable 4.6 mph 17.3 mph 0.14 in Rain , Thunderstorm Heavy Thunderstorms and Rain
8:40 PM 73.0 °F - 69.1 °F 87% 30.10 in 5.0 mi SW 4.6 mph - 0.32 in Rain , Thunderstorm Light Thunderstorms and Rain
8:53 PM 72.0 °F - 70.0 °F 93% 30.07 in 10.0 mi West 5.8 mph - 0.33 in Rain , Thunderstorm Light Thunderstorms and Rain
9:08 PM 72.0 °F - 70.0 °F 93% 30.09 in 10.0 mi WSW 5.8 mph - 0.00 in   Mostly Cloudy
9:53 PM 72.0 °F - 70.0 °F 93% 30.08 in 10.0 mi SSE 3.5 mph - 0.00 in   Clear
10:53 PM 73.0 °F - 70.0 °F 90% 30.09 in 10.0 mi Calm Calm - N/A   Clear
11:53 PM 73.0 °F - 71.1 °F 93% 30.09 in 9.0 mi North 3.5 mph - N/A   Clear